{"data":{"norad_id":63302,"intl_designator":"2025-056C","name":"KINEIS-4D","alt_names":[],"object_type":"PAYLOAD","status":"ACTIVE","operator":null,"country":"FR","launch_date":"2025-03-18","launch_site_code":"RLLB","launch_vehicle":null,"mission":null,"orbit_class":"UNKNOWN","rcs_meters":null,"size_class":null,"mass_kg":null,"dimensions":null,"purposes":[],"wikipedia_slug":null,"has_3d_model":false,"image_url":null,"decayed_at":null,"tle_current":{"epoch":"2026-09-22T22:14:03.251328Z","epoch_age_seconds":99139,"freshness":"FRESH","line1":"1 63302U 25056C   26265.92642652  .00000976  00000+0  16187-3 0  9996","line2":"2 63302  97.9122  27.3686 0003140  48.9390 311.2089 14.72369406 81510","mean_motion":14.72369406,"eccentricity":0.000314,"inclination_deg":97.9122,"raan_deg":27.3686,"arg_perigee_deg":48.939,"mean_anomaly_deg":311.2089,"bstar":0.00016187,"rev_number":8151,"period_min":97.801543154314,"perigee_km":651.30623575303,"apogee_km":655.72211269045,"semimajor_km":7031.6511742217,"source":"CELESTRAK","updated_at":"2026-09-23T09:00:21.959229Z"}}}